Terug naar catalogus

EPSILON DEB

ActiefLEO
NORAD 39254·DEBRIS·🇯🇵 Japan

Gelanceerd Sep 14, 2013 vanaf Uchinoura Space Center

Loading…

Volgende Passages (komende 24 uur)

TLE

VersSource: Space-Track

Epoch: Sep 14, 2026, 13:03 UTC

1 39254U 13049B   26257.54410625  .00000083  00000-0  15616-4 0  9993
2 39254  29.7066 355.1955 0182050   0.0226   0.0341 13.75482860654090

Volg EPSILON DEB in realtime met AllMySat

Download on the App Store